Regional Weather Roundup
Issued by NWS State College, PA

Home | Current Version | Previous Version | Graphics & Text | Print | Product List | Glossary Off
Versions: 1 2 3 4 5 6 7 8 9 10 11 12 13 14 15 16 17 18 19 20 21 22 23 24 25 26 27 28 29 30 31 32 33 34 35 36 37 38 39 40 41 42 43 44 45 46 47 48 49 50

281
ASUS41 KCTP 231310
RWRCTP

REGIONAL WEATHER ROUNDUP
NATIONAL WEATHER SERVICE STATE COLLEGE PA
900 AM EDT FRI JUN 23 2017

Note: "fair" indicates few or no clouds below 12,000 feet with no
significant weather and/or obstructions to visibility.

* = STATION THAT DOES NOT REPORT PRECIPITATION /E.G. RAIN...SNOW...ETC/
    THUNDER OR FOG.

PAZ002>004-007>009-013>016-020>023-029>032-231400-
WESTERN PENNSYLVANIA

CITY           SKY/WX    TMP DP  RH WIND       PRES   REMARKS
ERIE           LGT RAIN  71  67  87 S16       29.68F FOG
MEADVILLE      LGT RAIN  68  68 100 S6        29.74S FOG
FRANKLIN*      CLOUDY    66  64  94 S12       29.76F
NEW CASTLE     CLOUDY    69  69 100 MISG      29.75F
BEAVER COUNTY  CLOUDY    68  68 100 SW9       29.77F
BUTLER*        CLOUDY    70  66  88 S8        29.78F
PITTSBURGH INT CLOUDY    71  70  96 SW9       29.77F
PITTSBURGH     CLOUDY    70  67  90 SW9       29.79F FOG
INDIANA*       PTSUNNY   68  68 100 SW10      29.83F FOG
LATROBE        LGT RAIN  68  68 100 SW12      29.82S FOG
WASHINGTON CO* CLOUDY    72  68  88 SW9       29.82F
$$

PAZ004>006-010>012-017>019-024>028-033>037-041-042-045-046-049>053-231400-
CENTRAL PENNSYLVANIA

CITY           SKY/WX    TMP DP  RH WIND       PRES   REMARKS
BRADFORD       LGT RAIN  67  67 100 S5        29.79F FOG
DUBOIS         CLOUDY    67  65  93 SW7       29.79F FOG
CLEARFIELD     LGT RAIN  68  68 100 SW3       29.81S FOG
JOHNSTOWN      RAIN      67  67 100 W7        29.84S FOG
ALTOONA        LGT RAIN  69  69 100 SW9       29.82F
STATE COLLEGE  CLOUDY    70  68  94 S6        29.80F FOG
WILLIAMSPORT   LGT RAIN  72  69  90 CALM      29.77F FOG
SELINSGROVE    LGT RAIN  72  71  97 SE6       29.79F FOG
FT INDIANTOWN  LGT RAIN  70  70 100 SW3       29.82S FOG
CAPITAL CITY   LGT RAIN  74  69  85 S8G18     29.80F
HARRISBURG     LGT RAIN  73  71  93 S9G16     29.80F FOG
YORK           CLOUDY    72  71  97 S5        29.82F
$$

PAZ038>040-043-044-047-048-054-055-060>062-067>071-231400-
EASTERN PENNSYLVANIA

CITY           SKY/WX    TMP DP  RH WIND       PRES   REMARKS
SCRANTON       MOSUNNY   75  69  81 CALM      29.80F
MOUNT POCONO   CLOUDY    73  67  81 SW7       29.86F
ALLENTOWN      CLOUDY    76  70  82 NW3       29.82S
QUAKERTOWN*    CLOUDY    75  73  94 SW7       29.84S
READING        LGT RAIN  75  73  93 S9        29.81F
LANCASTER      LGT RAIN  74  72  93 SW9       29.83S FOG
COATESVILLE    DRIZZLE   73  73 100 SW6       29.87S
POTTSTOWN      CLOUDY    74  73  97 S5        29.84F
BLUE BELL      CLOUDY    73  73 100 SW8       29.85S
DOYLESTOWN     CLOUDY    76  73  91 SW8       29.83S
WILLOW GROVE   NOT AVBL
NORTH PHILA    LGT RAIN  78  73  84 SW7       29.84S
PHILADELPHIA   LGT RAIN  77  72  84 SW16G22   29.84F
$$




USA.gov is the U.S. government's official web portal to all federal, state and local government web resources and services.